User: anonymous   Login
Location: SAPM � Hemmingford
(45.0500°N, 73.5833°W)
Time: 14:51:54
(UTC-05:00)
Language:

Iridium 75 - Orbit

View from above orbital plane
View from above orbital plane
View from above satellite
View from above satellite

Ground track
Ground track

The orbit data is extracted from the following two-line orbital elements,

1 25346U 98032E   16337.47576317  .00000010  00000-0 -35817-5 0  9993
2 25346  86.3944 306.3413 0002114  86.4612  27.4585 14.34216364971474
Epoch (UTC): 02 December 2016 11:25:05
Eccentricity: 0.0002114
inclination: 86.3944°
perigee height: 776 km
apogee height: 779 km
right ascension of ascending node: 306.3413°
argument of perigee: 86.4612°
revolutions per day: 14.34216364
mean anomaly at epoch: 27.4585°
orbit number at epoch: 97147

The dashed part of the orbit path shows where the satellite is in the earth's shadow,  

DLR